, AK

(GMT )
Northway

Weather History for PAOR - December, 2013

Change the Weather History Date:

Saturday, December 28, 2013

  Actual Average Record
Temperature  
Mean Temperature -16 °F -  
Max Temperature -11 °F -8 °F 15 °F (1985)
Min Temperature -22 °F -24 °F -62 °F (1964)
Degree Days  
Heating Degree Days 82    
Moisture  
Dew Point -23 °F    
Average Humidity 75    
Maximum Humidity 79    
Minimum Humidity 70    
Precipitation  
Precipitation 0.00 in - - ()
Snow  
Snow 0.00 in - - ()
Snow Depth 10.00 in    
Sea Level Pressure  
Sea Level Pressure 30.43 in    
Wind  
Wind Speed 1 mph (East)    
Max Wind Speed 4 mph    
Max Gust Speed -    
Visibility 9 miles    
Events Snow    
Averages and records for this station are not official NWS values.
T = Trace of Precipitation, MM = Missing Value Source: NWS Daily Summary

Daily Weather History Graph

Daily Weather History Graph

Search for Another Location

Airport or City:

Trip Planner

Search our weather history database for the weather conditions in past years. The results will help you decide how hot, cold, wet, or windy it might be!

Date:

Astronomy

Dec. 28, 2013 Rise Set
Actual Time 10:04 AM AKST 2:54 PM AKST
Civil Twilight 8:54 AM AKST 4:04 PM AKST
Nautical Twilight 7:49 AM AKST 5:09 PM AKST
Astronomical Twilight 6:52 AM AKST 6:06 PM AKST
Moon 4:56 AM AKST (12/28) 12:41 PM AKST (12/28)
Length of Visible Light 7h 10m
Length of Day
4h 50m
Waning Crescent, 17% of the Moon is Illuminated
Dec 28
Waning Crescent
Jan 1
New
Jan 7
First Quarter
Jan 15
Full
Jan 23
Last Quarter

Hourly Weather History & Observations

Time (AKST) Temp. Windchill Dew Point Humidity Pressure Visibility Wind Dir Wind Speed Gust Speed Precip Events Conditions
12:53 AM -20.9 °F - -27.0 °F 73% 30.58 in 10.0 mi Calm Calm - N/A   Mostly Cloudy
1:53 AM -20.0 °F -30.7 °F -26.0 °F 74% 30.58 in 10.0 mi East 3.5 mph - N/A   Mostly Cloudy
2:53 AM -20.0 °F - -26.0 °F 74% 30.59 in 10.0 mi Calm Calm - N/A   Mostly Cloudy
3:53 AM -20.0 °F - -26.0 °F 74% 30.58 in 10.0 mi Calm Calm - N/A   Mostly Cloudy
4:53 AM -20.0 °F -30.7 °F -26.0 °F 74% 30.56 in 10.0 mi East 3.5 mph - N/A   Scattered Clouds
5:53 AM -20.0 °F - -26.0 °F 74% 30.55 in 10.0 mi Calm Calm - N/A   Scattered Clouds
6:53 AM -20.0 °F - -26.0 °F 74% 30.53 in 10.0 mi Calm Calm - N/A   Scattered Clouds
7:53 AM -20.0 °F - -25.1 °F 78% 30.51 in 10.0 mi Calm Calm - N/A   Mostly Cloudy
8:53 AM -18.9 °F - -25.1 °F 74% 30.50 in 10.0 mi Calm Calm - N/A   Mostly Cloudy
9:48 AM -16.6 °F - -23.8 °F 70% 30.21 in 2.0 mi Calm Calm - N/A Snow Light Snow
9:53 AM -17.0 °F - -23.1 °F 74% 30.48 in 2.0 mi Calm Calm - N/A Snow Light Snow
10:06 AM -16.6 °F - -22.0 °F 76% 30.20 in 5.0 mi Calm Calm - N/A Snow Light Snow
10:53 AM -16.1 °F - -20.9 °F 79% 30.46 in 10.0 mi Calm Calm - N/A   Overcast
11:53 AM -14.1 °F - -20.0 °F 75% 30.44 in 9.0 mi Calm Calm - N/A Snow Light Snow
12:53 PM -14.1 °F - -18.9 °F 79% 30.43 in 10.0 mi Calm Calm - N/A   Mostly Cloudy
1:53 PM -11.9 °F - -18.0 °F 74% 30.39 in 10.0 mi Calm Calm - N/A   Mostly Cloudy
2:53 PM -11.9 °F - -18.0 °F 74% 30.38 in 9.0 mi Calm Calm - N/A Snow Light Snow
3:53 PM -11.9 °F - -18.0 °F 74% 30.37 in 10.0 mi Calm Calm - N/A   Mostly Cloudy
4:53 PM -11.0 °F - -18.0 °F 71% 30.37 in 10.0 mi Calm Calm - N/A   Mostly Cloudy
5:53 PM -11.9 °F -21.5 °F -18.0 °F 74% 30.35 in 10.0 mi ESE 3.5 mph - N/A   Mostly Cloudy
6:53 PM -16.1 °F - -20.9 °F 79% 30.35 in 10.0 mi Calm Calm - N/A   Mostly Cloudy
7:53 PM -18.0 °F - -24.0 °F 74% 30.36 in 10.0 mi Calm Calm - N/A   Scattered Clouds
8:53 PM -20.9 °F - -26.0 °F 77% 30.36 in 10.0 mi Calm Calm - N/A   Scattered Clouds
9:53 PM -22.0 °F - -27.0 °F 77% 30.37 in 10.0 mi Calm Calm - N/A   Scattered Clouds
10:53 PM -20.0 °F - -26.0 °F 74% 30.36 in 10.0 mi Calm Calm - N/A   Mostly Cloudy
11:53 PM -18.9 °F - -24.0 °F 78% 30.35 in 10.0 mi Calm Calm - N/A   Mostly Cloudy